sat.trackr.live / text

‹ back to catalog

STARLINK-2163

NORAD 47749 · 2021-017AD

PAYLOAD ACTIVE UNKNOWN

§ Identity

Operator
Country
US
Launch date
2021-03-04
Launch site
AFETR
Launch vehicle
Mass (kg)
RCS (m²)

Purposes: comms

External: N2YO · Heavens-Above · Gunter

§ Orbital elements

Epoch: 2026-08-10T06:38:50.555328Z

Period
87.52 min
Inclination
53.1286°
Eccentricity
0.0006600
Mean motion
16.45257387 rev/d
Perigee alt
147.5 km
Apogee alt
156.2 km
Semi-major
6,530.0 km
B*
2.7093e-4
RAAN
157.2962°
Arg perigee
250.9199°
Mean anomaly
109.1136°
Rev number
30,209

§ Raw data

STARLINK-21631 47749U 21017AD  26222.27697402  .10082643  12464-4  27093-3 0  99922 47749  53.1286 157.2962 0006600 250.9199 109.1136 16.45257387302090

JSON: /api/v1/satellites/47749 · /tle

For live sub-satellite position, see the globe view (requires WebGL).

§ Visibility from observer

Set your observer location to see the next 7 days of passes ≥ 10°. The values pass through the URL so the page stays shareable.

No JS? Fill the form by hand. The geolocation button needs JavaScript.